Dewpoint
56 58 59 59 59 60 60 60 60 60 60 60 60 60 60 60 60 60 60 60 59 58 58 58 56 56 45 33 30 43 49 44 40 40 38 33 26 24 22 22 24 24 25 27 28 28 27
56 57 58 59 59 59 60 60 60 60 60 60 60 60 60 60 60 60 60 60 58 57 58 55 55 54 36 33 40 41 40 38 40 37 37 36 32 32 26 24 22 28 28 24 24 26 26
57 57 58 59 59 60 60 60 60 60 60 60 60 60 60 60 60 60 60 59 58 56 55 54 55 40 32 31 39 39 38 37 40 39 34 39 38 29 26 26 27 26 21 20 22 26 25
58 58 59 59 59 60 60 60 60 60 60 60 60 60 60 60 60 59 59 58 57 55 54 54 54 36 31 37 41 37 39 33 38 39 39 40 39 34 29 29 25 23 24 27 22 26 26
58 59 59 60 60 60 60 61 60 60 60 60 60 60 60 59 59 59 57 56 54 53 53 51 41 36 34 41 32 37 39 37 37 37 37 33 33 31 29 29 32 26 25 23 24 21 21
59 59 60 61 60 60 60 61 61 60 60 60 60 59 59 59 59 58 55 53 53 52 47 42 37 37 31 27 35 37 39 38 35 33 32 33 32 29 28 30 31 24 22 22 22 22 22
60 60 60 61 61 61 61 61 61 60 60 60 59 59 59 59 59 57 50 49 46 45 44 41 39 30 30 35 38 33 38 35 30 28 29 30 33 28 23 23 22 21 20 21 22 20 24
61 61 61 61 61 61 61 61 61 60 60 59 59 59 59 59 59 55 47 45 43 44 42 42 42 35 34 37 27 32 37 32 30 29 30 33 28 25 24 22 21 21 22 24 24 21 24
60 61 61 61 61 61 61 61 61 60 60 59 59 59 59 59 57 51 45 43 46 44 41 39 39 30 31 35 32 34 34 30 30 30 28 30 27 25 23 23 23 23 22 22 22 25 23
58 58 60 61 61 61 60 60 60 60 60 59 59 59 59 57 54 52 47 46 48 46 42 40 35 33 34 36 30 37 37 32 31 30 28 28 25 23 23 24 23 25 22 23 25 25 25
52 55 57 58 59 59 60 60 60 60 59 58 58 59 59 56 55 52 48 48 48 44 36 39 32 36 36 30 33 37 38 33 31 30 31 31 27 26 27 26 23 26 26 25 25 26 25
51 51 52 53 55 56 57 57 58 58 59 58 58 58 57 55 53 51 48 46 45 41 36 36 31 31 31 33 34 34 36 34 32 31 29 30 29 27 26 27 25 26 24 23 28 27 29
52 51 51 52 52 52 53 54 56 56 57 57 58 58 57 55 53 48 46 47 42 38 34 32 33 29 31 34 34 33 33 33 33 32 31 30 29 27 27 25 27 24 23 34 32 33 20
48 50 51 50 52 52 52 52 52 54 56 56 56 58 57 54 49 47 49 44 35 36 32 32 30 30 30 33 34 33 32 32 32 31 32 32 35 27 27 25 22 22 22 30 23 19 16
50 49 50 51 50 50 51 50 51 52 53 55 55 54 54 52 48 50 49 38 38 37 35 33 33 32 33 34 34 32 31 32 32 31 31 28 28 27 27 26 25 24 23 22 22 18 20
50 49 50 50 51 50 49 50 50 50 50 51 53 51 51 51 49 51 46 41 40 39 37 35 32 33 32 34 32 32 31 31 31 31 30 28 26 25 28 28 28 24 24 23 23 21 18
49 50 50 49 49 49 50 49 49 49 49 49 50 47 49 51 51 47 41 42 42 40 38 36 34 33 32 33 33 31 30 32 31 30 29 27 27 26 27 26 24 23 22 22 23 24 25
50 49 48 49 49 49 49 50 49 48 49 48 46 40 48 51 41 43 42 43 43 42 40 38 37 35 33 34 33 32 31 32 31 28 28 27 26 27 27 26 25 26 23 22 24 23 23
50 48 47 47 48 48 49 50 50 48 49 46 41 40 48 47 36 39 40 41 43 42 41 39 37 38 37 35 34 34 34 35 31 29 28 27 27 27 27 26 25 24 24 23 23 24 24
49 48 49 48 47 47 49 49 50 49 49 46 38 33 39 43 41 38 37 36 39 41 41 42 41 41 40 38 38 36 37 34 31 31 38 32 33 28 23 23 24 24 25 24 23 25 24
48 48 48 46 47 46 47 48 48 48 48 45 37 34 37 33 36 36 35 34 34 34 39 40 36 37 37 34 36 35 38 39 37 37 37 37 33 33 32 34 35 30 28 26 25 25 26
48 48 47 46 46 47 48 48 47 47 47 43 36 36 38 35 36 36 34 33 34 35 34 34 34 36 36 34 36 35 37 36 35 38 37 38 32 33 29 27 28 28 28 31 33 30 29
47 47 48 47 46 46 48 47 46 47 47 42 43 43 38 35 34 34 34 35 35 37 37 36 35 36 34 36 37 37 38 37 35 36 36 34 34 30 24 23 25 24 24 24 25 26 26
45 46 47 47 48 47 46 47 46 46 47 44 43 42 36 32 34 31 32 34 33 32 34 36 36 35 35 38 39 38 37 36 35 33 37 34 33 31 26 26 19 18 20 23 21 21 23
45 45 46 47 47 47 46 45 46 45 47 44 44 39 34 32 35 34 33 34 32 35 34 35 37 37 37 37 33 31 30 31 31 33 34 35 32 28 24 23 19 19 19 20 20 17 21
44 45 46 46 47 47 47 47 45 44 44 45 44 44 36 32 30 29 30 35 33 34 32 35 37 39 39 35 32 26 23 21 20 24 29 33 33 28 26 22 15 11 18 21 21 16 19
44 45 46 46 46 46 46 45 44 44 44 44 43 44 35 31 35 33 31 28 34 35 33 35 36 35 37 32 29 27 25 21 17 16 22 25 27 26 26 24 25 20 19 23 19 15 21
44 44 44 44 45 45 46 45 44 44 43 43 42 42 37 33 35 34 33 31 33 35 30 35 34 34 33 29 28 29 28 24 22 19 19 20 22 21 24 23 20 27 20 20 21 20 20
43 43 44 43 44 44 43 43 42 43 43 43 40 42 42 36 35 38 37 35 35 34 32 35 34 34 34 32 33 31 28 29 25 22 22 18 22 20 20 20 22 22 25 25 20 19 17
Lifted_Index
9 9 8 8 8 8 8 7 7 7 7 7 7 7 7 7 7 7 7 7 7 6 6 6 7 7 7 6 8 11 13 14 13 13 12 11 10 9 8 7 7 7 7 8 8 9 9
9 9 8 8 8 8 7 7 7 7 7 7 7 7 7 7 7 7 7 6 6 6 6 6 7 7 6 7 10 13 14 14 14 13 12 11 11 9 8 7 7 7 7 8 8 9 8
9 9 8 8 8 7 7 7 7 7 7 7 7 7 7 7 7 7 6 6 6 6 6 6 6 6 6 8 11 14 14 14 14 13 12 12 11 9 8 8 8 7 7 7 8 8 8
8 8 8 7 7 7 7 7 7 7 7 7 7 7 7 7 7 6 6 5 5 6 6 6 6 6 6 9 12 14 14 14 13 13 12 11 10 8 7 7 7 7 7 7 8 8 8
7 7 7 7 6 6 6 6 6 6 7 7 7 7 7 7 6 6 5 5 5 6 6 6 6 5 6 9 12 12 12 12 11 10 10 9 9 8 7 6 6 6 6 6 7 8 9
6 6 6 6 6 6 6 6 6 6 6 6 7 7 7 7 6 5 5 5 5 5 5 5 5 5 6 8 10 10 10 9 8 8 7 7 7 7 6 6 5 5 5 6 7 8 8
6 6 6 6 6 6 6 6 6 6 6 6 6 7 7 6 6 5 5 4 4 4 4 4 4 5 6 8 8 8 8 7 7 6 6 6 6 6 6 6 6 6 6 6 7 8 8
6 6 6 5 5 6 6 6 6 6 6 6 6 6 6 6 5 5 5 4 5 4 4 4 4 5 8 9 8 7 7 7 6 6 6 5 5 6 6 6 6 6 6 6 7 8 8
6 6 6 5 5 5 6 6 6 6 6 6 6 6 6 6 5 5 4 5 6 5 4 3 4 6 8 9 7 7 7 6 6 5 5 5 5 6 6 6 6 6 6 6 6 7 7
7 7 6 6 5 5 6 6 6 6 6 6 6 6 6 5 5 4 4 5 6 5 4 3 4 6 7 8 7 6 6 6 5 5 5 5 5 5 6 6 6 6 6 6 6 5 5
8 8 7 7 6 6 6 6 6 6 6 6 6 5 5 5 5 4 4 5 6 5 3 3 5 6 6 6 6 6 6 5 5 4 4 5 5 5 5 6 6 6 7 7 6 5 3
9 9 9 8 7 7 7 7 6 6 6 6 5 5 5 5 5 4 5 5 5 4 3 3 4 5 4 4 4 5 5 5 4 4 4 4 5 5 6 6 6 7 6 6 5 3 2
11 11 10 10 9 8 8 7 7 7 7 6 5 5 5 4 4 4 4 4 4 4 3 3 3 4 4 4 4 4 4 4 4 3 3 3 4 5 6 6 6 6 5 3 2 1 1
13 12 12 11 11 10 10 9 8 8 7 6 6 5 4 4 3 3 3 4 4 4 4 3 3 3 3 3 4 4 3 3 3 3 3 3 3 5 6 6 6 6 5 3 2 1 1
13 13 13 12 12 12 12 11 10 9 8 7 6 5 4 3 3 3 3 4 4 4 4 3 2 2 2 2 3 3 3 3 3 3 3 3 4 5 6 7 7 6 6 5 4 2 1
12 12 12 12 13 12 12 12 12 11 10 8 6 5 4 3 3 2 3 4 4 4 3 3 2 2 2 2 2 2 3 3 4 4 4 4 4 5 6 7 7 7 6 6 5 3 1
12 12 12 13 13 13 13 13 13 13 12 9 6 5 5 4 3 2 3 3 4 3 3 3 2 2 2 2 2 2 3 3 4 4 4 4 4 5 6 6 6 7 6 6 5 3 2
12 12 13 13 13 13 13 13 13 13 12 10 7 6 6 5 3 2 3 3 3 3 3 3 3 3 3 2 2 2 3 3 4 4 4 5 4 4 5 6 7 6 6 6 5 4 4
11 12 12 13 13 13 13 12 12 13 13 11 8 7 7 6 4 3 2 3 3 3 3 3 3 3 3 3 3 3 3 4 5 5 5 5 5 4 4 6 6 6 6 5 5 4 4
11 11 12 12 12 12 12 12 12 13 13 12 10 8 8 7 5 4 3 3 3 3 4 3 3 3 3 3 3 3 4 5 6 6 6 6 6 5 5 5 5 5 5 5 5 5 5
10 10 11 11 12 12 12 12 12 13 13 13 11 10 9 8 6 5 4 4 3 4 4 4 4 3 3 3 3 3 4 5 6 6 6 6 6 6 5 5 5 5 5 6 6 6 5
8 9 9 10 11 11 11 12 12 13 13 12 12 11 10 9 8 7 6 5 5 6 6 6 5 4 4 4 4 4 5 6 6 6 6 6 5 5 5 5 5 5 6 7 7 6 5
5 6 7 8 9 10 10 11 11 12 12 12 12 11 11 10 9 8 8 7 7 8 8 8 7 7 7 7 7 7 7 7 7 7 7 6 5 5 5 5 5 6 7 8 7 6 5
2 3 4 5 6 7 8 9 9 10 10 11 11 10 10 10 10 9 9 9 9 9 9 10 9 9 9 9 9 8 8 8 8 7 7 7 6 5 5 5 5 7 8 7 7 6 6
2 2 2 2 2 3 5 6 7 7 8 9 9 9 9 9 9 10 9 10 10 10 10 10 10 10 10 9 8 8 7 7 7 8 7 7 6 5 5 4 5 6 7 6 6 6 6
1 1 1 1 1 1 2 4 4 5 6 6 7 7 7 8 8 9 9 9 9 10 10 10 10 9 9 8 7 7 6 7 7 7 7 6 5 5 4 3 3 5 5 4 4 5 5
1 1 1 0 0 1 1 2 3 3 4 5 5 6 6 6 7 7 8 8 8 8 8 8 8 8 8 7 6 5 5 5 5 6 5 5 4 3 3 2 2 3 3 3 3 3 3
0 0 0 0 0 1 1 1 2 2 2 3 4 4 4 5 5 6 7 7 7 7 7 7 7 6 6 5 4 4 3 3 3 3 3 3 3 2 2 1 2 2 2 2 2 2 2
-0 -0 -0 0 0 1 1 1 1 2 2 2 3 3 4 4 5 5 6 6 6 5 6 6 6 5 4 4 3 3 2 2 2 2 2 2 2 2 1 1 1 1 1 1 1 2 2